TimeCST,TemperatureF,Dew PointF,Humidity,Sea Level PressureIn,VisibilityMPH,Wind Direction,Wind SpeedMPH,Gust SpeedMPH,PrecipitationIn,Events,Conditions,WindDirDegrees,DateUTC
12:15 AM,28.4,17.4,63,30.19,10.0,North,3.5,-,N/A,,Clear,360,2013-02-16 06:15:00
12:55 AM,27.3,18.1,68,30.19,10.0,North,4.6,-,N/A,,Clear,350,2013-02-16 06:55:00
1:15 AM,27.5,17.6,66,30.19,10.0,Calm,Calm,-,N/A,,Clear,0,2013-02-16 07:15:00
1:35 AM,26.2,17.6,70,30.18,10.0,Calm,Calm,-,N/A,,Clear,0,2013-02-16 07:35:00
1:55 AM,26.2,17.8,70,30.18,10.0,Calm,Calm,-,N/A,,Clear,0,2013-02-16 07:55:00
2:15 AM,25.7,18.0,73,30.18,10.0,Calm,Calm,-,N/A,,Clear,0,2013-02-16 08:15:00
2:35 AM,25.7,19.2,76,30.18,10.0,Calm,Calm,-,N/A,,Clear,0,2013-02-16 08:35:00
2:55 AM,25.7,20.1,79,30.17,10.0,Calm,Calm,-,N/A,,Clear,0,2013-02-16 08:55:00
3:35 AM,24.6,19.9,82,30.17,10.0,Calm,Calm,-,N/A,,Clear,0,2013-02-16 09:35:00
3:55 AM,23.9,19.4,83,30.18,10.0,WNW,4.6,-,N/A,,Clear,290,2013-02-16 09:55:00
4:15 AM,26.4,20.1,77,30.18,10.0,Calm,Calm,-,N/A,,Clear,0,2013-02-16 10:15:00
4:35 AM,26.6,19.2,74,30.19,10.0,NW,4.6,-,N/A,,Mostly Cloudy,310,2013-02-16 10:35:00
5:35 AM,27.7,20.3,74,30.19,10.0,North,4.6,-,N/A,,Overcast,350,2013-02-16 11:35:00
5:55 AM,27.0,20.1,75,30.19,10.0,North,3.5,-,N/A,,Overcast,350,2013-02-16 11:55:00
6:15 AM,26.4,19.9,77,30.20,10.0,NW,3.5,-,N/A,,Mostly Cloudy,320,2013-02-16 12:15:00
6:35 AM,26.6,19.4,74,30.20,10.0,NNW,5.8,-,N/A,,Overcast,330,2013-02-16 12:35:00
6:55 AM,26.2,18.7,73,30.21,10.0,NNW,5.8,-,N/A,,Scattered Clouds,330,2013-02-16 12:55:00
7:35 AM,27.0,18.5,70,30.22,10.0,NW,8.1,-,N/A,,Clear,320,2013-02-16 13:35:00
7:55 AM,27.5,17.6,66,30.23,10.0,North,11.5,-,N/A,,Scattered Clouds,350,2013-02-16 13:55:00
8:15 AM,28.2,16.7,62,30.23,10.0,NNW,12.7,16.1,N/A,,Overcast,330,2013-02-16 14:15:00
8:35 AM,28.9,17.1,61,30.23,10.0,NW,11.5,16.1,N/A,,Overcast,320,2013-02-16 14:35:00
8:55 AM,29.3,17.1,60,30.23,10.0,NNW,11.5,16.1,N/A,,Scattered Clouds,330,2013-02-16 14:55:00
9:15 AM,29.8,16.5,58,30.23,10.0,NNW,8.1,-,N/A,,Clear,330,2013-02-16 15:15:00
9:35 AM,30.0,16.7,58,30.23,10.0,North,8.1,-,N/A,,Clear,350,2013-02-16 15:35:00
12:35 PM,36.0,11.7,37,30.21,10.0,WNW,11.5,-,N/A,,Scattered Clouds,300,2013-02-16 18:35:00
12:55 PM,36.1,10.9,35,30.20,10.0,NNW,9.2,21.9,N/A,,Scattered Clouds,340,2013-02-16 18:55:00
1:15 PM,36.1,10.2,34,30.20,10.0,WNW,9.2,-,N/A,,Clear,300,2013-02-16 19:15:00
1:35 PM,36.5,9.5,33,30.20,10.0,NNW,10.4,18.4,N/A,,Clear,340,2013-02-16 19:35:00
1:55 PM,36.9,10.6,34,30.19,10.0,NW,4.6,-,N/A,,Clear,310,2013-02-16 19:55:00
2:15 PM,37.2,7.2,29,30.19,10.0,NNW,11.5,20.7,N/A,,Clear,340,2013-02-16 20:15:00
2:35 PM,37.2,8.2,30,30.19,10.0,NNW,9.2,-,N/A,,Clear,330,2013-02-16 20:35:00
2:55 PM,37.4,7.7,29,30.19,10.0,NNW,10.4,17.3,N/A,,Scattered Clouds,330,2013-02-16 20:55:00
3:15 PM,36.7,6.8,29,30.19,10.0,North,9.2,-,N/A,,Clear,350,2013-02-16 21:15:00
3:35 PM,37.4,6.6,28,30.19,10.0,NNW,10.4,16.1,N/A,,Clear,330,2013-02-16 21:35:00
3:55 PM,36.5,6.4,29,30.19,10.0,NNW,10.4,-,N/A,,Clear,330,2013-02-16 21:55:00
4:15 PM,36.5,6.4,29,30.19,10.0,NNW,8.1,-,N/A,,Clear,340,2013-02-16 22:15:00
4:35 PM,36.3,7.2,30,30.19,10.0,North,6.9,-,N/A,,Clear,360,2013-02-16 22:35:00
4:55 PM,35.8,7.7,31,30.19,10.0,NNW,8.1,-,N/A,,Clear,330,2013-02-16 22:55:00
5:15 PM,34.9,7.7,32,30.19,10.0,NW,3.5,-,N/A,,Clear,310,2013-02-16 23:15:00
5:35 PM,33.6,7.0,33,30.19,10.0,WNW,4.6,-,N/A,,Clear,290,2013-02-16 23:35:00
5:55 PM,32.4,7.2,35,30.19,10.0,NW,3.5,-,N/A,,Clear,310,2013-02-16 23:55:00
6:15 PM,32.9,6.4,33,30.20,10.0,West,3.5,-,N/A,,Clear,270,2013-02-17 00:15:00
6:35 PM,32.0,8.6,38,30.20,10.0,Calm,Calm,-,N/A,,Clear,0,2013-02-17 00:35:00
6:55 PM,31.8,7.9,37,30.20,10.0,Calm,Calm,-,N/A,,Clear,0,2013-02-17 00:55:00
7:15 PM,29.3,11.5,47,30.20,10.0,Calm,Calm,-,N/A,,Clear,0,2013-02-17 01:15:00
7:35 PM,28.0,14.0,56,30.20,10.0,Calm,Calm,-,N/A,,Clear,0,2013-02-17 01:35:00
7:55 PM,28.0,13.8,55,30.20,10.0,Calm,Calm,-,N/A,,Clear,0,2013-02-17 01:55:00
8:15 PM,27.5,15.3,60,30.20,10.0,Calm,Calm,-,N/A,,Clear,0,2013-02-17 02:15:00
8:35 PM,27.0,14.2,59,30.20,10.0,Calm,Calm,-,N/A,,Clear,0,2013-02-17 02:35:00
8:55 PM,26.6,15.1,62,30.21,10.0,Calm,Calm,-,N/A,,Clear,0,2013-02-17 02:55:00
9:15 PM,25.9,16.5,68,30.21,10.0,Calm,Calm,-,N/A,,Clear,0,2013-02-17 03:15:00
9:35 PM,25.2,16.5,70,30.21,10.0,Calm,Calm,-,N/A,,Clear,0,2013-02-17 03:35:00
9:55 PM,24.8,14.7,66,30.21,10.0,Calm,Calm,-,N/A,,Clear,0,2013-02-17 03:55:00
10:15 PM,24.6,14.7,66,30.21,10.0,Calm,Calm,-,N/A,,Clear,0,2013-02-17 04:15:00
10:35 PM,24.1,15.4,70,30.21,10.0,Calm,Calm,-,N/A,,Clear,0,2013-02-17 04:35:00
10:55 PM,23.7,15.4,71,30.21,10.0,Calm,Calm,-,N/A,,Clear,0,2013-02-17 04:55:00
11:15 PM,22.5,18.7,85,30.20,10.0,Calm,Calm,-,N/A,,Clear,0,2013-02-17 05:15:00
11:35 PM,22.8,18.1,82,30.20,10.0,Calm,Calm,-,N/A,,Clear,0,2013-02-17 05:35:00
11:55 PM,22.8,18.5,83,30.20,10.0,WSW,3.5,-,N/A,,Clear,240,2013-02-17 05:55:00